Location: Avenches
(46.8809°N, 7.0410°E)
Time: 02:43:50
(UTC+00:00)

USA 234 - Pass Details

Date: 30 March 2020
Orbit: 1102 x 1106 km, 123.0° (Epoch: 14 May)

Event Time Altitude Azimuth Distance (km) Brightness Sun altitude
Rises 20:06:43 0° 53° (NE) 3,926 6.0 -21.3°
Reaches altitude 10° 20:09:12 10° 52° (NE) 2,967 5.3 -21.7°
Maximum altitude 20:15:46 83° 327° (NNW) 1,117 3.3 -22.6°
Drops below altitude 10° 20:22:19 10° 240° (WSW) 2,959 5.8 -23.5°
Sets 20:24:47 0° 240° (WSW) 3,915 6.5 -23.8°
